Flag for Nigeria Weather past 2 weeks in Lagos, Nigeria

Now
77 °F

Haze.


Feels Like: 78 °F
Forecast: 74 / 93 °F
Wind: 3 mph from North

Location: Lagos / Ikeja

Current Time: Dec 18, 2014 at 9:00:40 AM

Latest Report: Dec 18, 2014 at 8:00 AM


Visibility: 1 mi

Pressure: 29.92 "Hg

Humidity: 100%

Dew point: 77 °F

Location of LagosLocation

Historic Weather in Lagos — Graph

°F

Lagos temperature yesterday

Maximum temperature yesterday: 93 °F (at 1:00 PM)
Minimum temperature yesterday: 81 °F (at 10:00 PM)
Average temperature yesterday: 87 °F

Past Weeks' High & Low Weather Summary

 TemperatureHumidityPressure
High93 °F (Dec 6, 2:00 PM)100% (Dec 5, 4:00 AM)30.09 "Hg (Dec 5, 4:00 AM)
Low73 °F (Dec 15, 7:00 AM)47% (Dec 14, 2:00 PM)29.80 "Hg (Dec 3, 3:00 PM)
Average83 °F84%29.87 "Hg
* Reported Dec 3 10:00 AM — Dec 18 7:00 AM, Lagos, Weather by CustomWeather, © 2014

Note: Actual official high and low records may vary slightly from our data, if they occured in-between our weather recording intervals... More about our weather records

Advertising

Lagos weather history for previous 24 hours

 ConditionsComfort  
Time TempWeatherWind HumidityBarometerVisibility
7:00 AM
Dec 18
77 °FScattered clouds.3 mph94%29.92 "Hg1 mi
6:00 AM77 °FFog.2 mph94%29.92 "Hg2 mi
5:00 AM77 °FFog.2 mph94%29.89 "Hg2 mi
4:00 AM79 °FHaze.2 mph94%29.89 "Hg2 mi
3:00 AM79 °FHaze.2 mph94%29.89 "Hg2 mi
2:00 AM79 °FHaze.2 mph94%29.92 "Hg2 mi
1:00 AM81 °FHaze.5 mph89%29.92 "Hg3 mi
12:00 AM81 °FHaze.6 mph89%29.92 "Hg3 mi
11:00 PM
Dec 17
81 °FHaze.2 mph89%29.92 "Hg3 mi
10:00 PM81 °FHaze.2 mph89%29.95 "Hg3 mi
9:00 PM82 °FHaze.3 mph84%29.92 "Hg3 mi
8:00 PM82 °FHaze.5 mph89%29.89 "Hg3 mi
7:00 PM84 °FHaze.7 mph84%29.86 "Hg3 mi
6:00 PM86 °FHaze.10 mph79%29.83 "Hg2 mi
5:00 PM88 °FHaze.7 mph75%29.83 "Hg2 mi
4:00 PM91 °FHaze.9 mph67%29.83 "Hg2 mi
3:00 PM93 °FHaze.7 mph59%29.83 "Hg2 mi
2:00 PM93 °FScattered clouds.7 mph59%29.86 "Hg2 mi
1:00 PM93 °FScattered clouds.6 mph59%29.92 "Hg2 mi
12:00 PM90 °FScattered clouds.7 mph67%29.98 "Hg2 mi
Weather by CustomWeather, © 2014

See weather overviewHow to use our weather pages